{"data":{"norad_id":64827,"intl_designator":"2025-151M","name":"KUIPER-00080","alt_names":[],"object_type":"PAYLOAD","status":"ACTIVE","operator":null,"country":"US","launch_date":"2025-07-16","launch_site_code":"AFETR","launch_vehicle":null,"mission":null,"orbit_class":"UNKNOWN","rcs_meters":null,"size_class":null,"mass_kg":null,"dimensions":null,"purposes":[],"wikipedia_slug":null,"has_3d_model":false,"image_url":null,"decayed_at":null,"tle_current":{"epoch":"2026-05-24T21:35:56.931072Z","epoch_age_seconds":80744,"freshness":"FRESH","line1":"1 64827U 25151M   26144.89996448  .00000316  00000+0  70516-4 0  9997","line2":"2 64827  51.8997 323.5648 0000735 118.8317 241.2720 14.79932373 46593","mean_motion":14.79932373,"eccentricity":7.35e-5,"inclination_deg":51.8997,"raan_deg":323.5648,"arg_perigee_deg":118.8317,"mean_anomaly_deg":241.272,"bstar":7.0516e-5,"rev_number":4659,"period_min":97.301743395271,"perigee_km":629.0225443756,"apogee_km":630.05267254304,"semimajor_km":7007.6746084593,"source":"CELESTRAK","updated_at":"2026-05-25T13:38:04.824606Z"}}}